Location: Mahannah Oil Field
(37.4664°N, 96.6003°W)
Time: 01:27:32
(UTC+00:00)

A-11 Canister half - Pass Details

Date: 31 January 2021
Orbit: 1524 x 1684 km, 47.3° (Epoch: 25 February)

Event Time Altitude Azimuth Distance (km) Brightness Sun altitude
Rises 21:55:32 0° 283° (WNW) 4,679 12.1 18.6°
Reaches altitude 10° 21:58:45 10° 290° (WNW) 3,705 11.5 18.2°
Maximum altitude 22:07:41 47° 2° (N) 1,988 9.6 16.8°
Drops below altitude 10° 22:16:52 10° 74° (ENE) 3,804 10.6 15.3°
Sets 22:20:13 0° 81° (E) 4,812 11.1 14.8°
